Total_Precipitation_Accumulation
1.31 1.32 1.27 1.17 1.16 1.17 1.18 1.25 1.36 1.21 0.91 0.71 0.68 0.68 0.73 0.76 0.85 0.81 0.74 0.88 0.88 0.83 0.85 0.86 0.84 0.83 0.81 0.83 0.92 1.08 1.19 1.24 1.29 1.38 1.44 1.42 1.37 1.41
1.15 1.22 1.23 1.16 1.13 1.14 1.17 1.21 1.29 1.35 1.14 0.77 0.67 0.67 0.72 0.75 0.83 0.74 0.68 0.81 0.79 0.76 0.74 0.73 0.72 0.70 0.69 0.70 0.72 0.81 0.90 0.99 1.07 1.18 1.37 1.52 1.57 1.59
1.01 1.04 1.07 1.09 1.14 1.14 1.16 1.20 1.25 1.31 1.28 0.94 0.77 0.75 0.80 0.80 0.80 0.73 0.66 0.64 0.62 0.72 0.67 0.64 0.63 0.62 0.62 0.61 0.62 0.65 0.69 0.76 0.87 0.99 1.13 1.29 1.42 1.45
0.86 0.91 0.92 0.96 1.00 1.05 1.12 1.17 1.20 1.22 1.24 1.08 0.85 0.77 0.76 0.74 0.71 0.69 0.64 0.58 0.53 0.63 0.61 0.58 0.56 0.55 0.53 0.52 0.56 0.60 0.62 0.65 0.71 0.79 0.86 0.99 1.12 1.24
0.76 0.79 0.82 0.87 0.93 0.94 0.98 1.02 1.04 1.06 1.10 1.06 0.88 0.73 0.68 0.65 0.66 0.62 0.56 0.53 0.48 0.52 0.53 0.52 0.52 0.53 0.54 0.53 0.55 0.56 0.55 0.54 0.56 0.61 0.68 0.79 0.89 0.98
0.72 0.75 0.77 0.80 0.82 0.84 0.88 0.90 0.91 0.92 0.94 0.97 0.90 0.80 0.73 0.69 0.71 0.68 0.63 0.57 0.52 0.47 0.52 0.52 0.54 0.53 0.50 0.47 0.46 0.48 0.50 0.52 0.56 0.62 0.68 0.74 0.81 0.89
0.71 0.72 0.76 0.83 0.85 0.83 0.81 0.81 0.82 0.87 0.91 0.98 0.95 0.80 0.68 0.65 0.65 0.61 0.61 0.60 0.60 0.55 0.54 0.49 0.44 0.40 0.38 0.40 0.43 0.46 0.50 0.54 0.59 0.63 0.68 0.74 0.78 0.85
0.69 0.67 0.67 0.71 0.70 0.72 0.72 0.71 0.76 0.84 0.95 1.00 0.90 0.73 0.58 0.52 0.52 0.57 0.63 0.69 0.63 0.46 0.48 0.46 0.43 0.42 0.38 0.35 0.44 0.48 0.48 0.50 0.53 0.54 0.58 0.63 0.69 0.75
0.65 0.60 0.56 0.55 0.56 0.49 0.54 0.58 0.61 0.70 0.73 0.66 0.60 0.52 0.49 0.48 0.58 0.67 0.67 0.66 0.54 0.41 0.48 0.52 0.46 0.43 0.37 0.38 0.45 0.43 0.43 0.45 0.49 0.53 0.56 0.58 0.62 0.67
0.50 0.45 0.42 0.39 0.38 0.39 0.42 0.50 0.48 0.47 0.46 0.43 0.41 0.39 0.40 0.43 0.54 0.67 0.69 0.68 0.56 0.45 0.45 0.50 0.40 0.38 0.34 0.35 0.43 0.42 0.42 0.45 0.50 0.56 0.60 0.61 0.62 0.66
0.38 0.35 0.35 0.33 0.39 0.46 0.46 0.48 0.38 0.33 0.37 0.42 0.45 0.44 0.45 0.46 0.48 0.60 0.72 0.80 0.70 0.47 0.38 0.42 0.36 0.34 0.34 0.33 0.36 0.43 0.42 0.44 0.46 0.48 0.52 0.56 0.60 0.65
0.29 0.30 0.35 0.35 0.42 0.50 0.46 0.42 0.35 0.31 0.33 0.37 0.40 0.41 0.40 0.42 0.48 0.49 0.65 0.90 0.80 0.57 0.32 0.38 0.41 0.48 0.61 0.37 0.31 0.34 0.37 0.41 0.45 0.49 0.52 0.56 0.61 0.64
0.27 0.27 0.29 0.40 0.46 0.50 0.44 0.36 0.38 0.42 0.38 0.37 0.38 0.38 0.39 0.42 0.44 0.43 0.50 0.85 1.07 0.78 0.37 0.61 0.78 0.62 0.78 0.54 0.33 0.31 0.33 0.36 0.41 0.47 0.52 0.57 0.66 0.79
0.25 0.25 0.29 0.41 0.43 0.41 0.40 0.40 0.44 0.43 0.37 0.39 0.42 0.39 0.37 0.35 0.35 0.37 0.40 0.47 0.63 0.72 0.52 0.79 1.16 0.88 0.99 0.81 0.46 0.34 0.34 0.35 0.44 0.54 0.60 0.69 0.74 0.81
0.27 0.30 0.33 0.35 0.34 0.34 0.38 0.43 0.43 0.38 0.38 0.41 0.41 0.38 0.35 0.35 0.37 0.41 0.44 0.44 0.43 0.42 0.44 0.54 0.81 0.89 1.09 1.06 0.68 0.43 0.42 0.41 0.44 0.59 0.68 0.73 0.74 0.79
0.32 0.31 0.31 0.30 0.30 0.32 0.34 0.36 0.38 0.39 0.43 0.45 0.41 0.38 0.39 0.42 0.45 0.46 0.50 0.51 0.55 0.46 0.41 0.42 0.52 0.81 0.99 0.78 0.78 0.65 0.53 0.60 0.54 0.65 0.74 0.77 0.81 0.85
0.41 0.36 0.33 0.32 0.31 0.30 0.31 0.32 0.35 0.39 0.44 0.44 0.47 0.49 0.48 0.47 0.46 0.46 0.53 0.59 0.63 0.50 0.43 0.42 0.46 0.55 0.66 0.72 0.77 0.62 0.56 0.62 0.71 0.84 0.97 1.00 0.91 0.95
0.53 0.42 0.34 0.32 0.32 0.32 0.33 0.35 0.38 0.42 0.46 0.51 0.55 0.59 0.61 0.59 0.55 0.49 0.52 0.61 0.62 0.51 0.47 0.46 0.54 0.67 0.64 0.56 0.59 0.69 0.71 0.78 0.83 0.90 1.07 1.25 1.08 0.94
0.50 0.38 0.30 0.28 0.29 0.33 0.37 0.41 0.42 0.43 0.51 0.60 0.66 0.69 0.72 0.69 0.66 0.61 0.57 0.60 0.58 0.51 0.48 0.52 0.68 1.00 1.03 0.64 0.42 0.60 0.93 1.01 0.96 0.98 1.06 1.26 1.40 1.17
0.36 0.31 0.29 0.30 0.34 0.38 0.42 0.46 0.48 0.50 0.56 0.60 0.66 0.72 0.80 0.83 0.77 0.68 0.64 0.66 0.68 0.61 0.53 0.49 0.60 0.97 1.40 1.19 0.87 0.64 0.76 1.10 1.32 1.36 1.14 1.00 1.05 1.05
0.27 0.28 0.31 0.36 0.42 0.45 0.48 0.52 0.56 0.59 0.59 0.64 0.67 0.72 0.81 0.91 0.82 0.70 0.70 0.68 0.74 0.74 0.65 0.50 0.49 0.69 1.03 1.23 1.04 0.68 0.69 0.82 1.15 1.57 1.52 1.31 1.08 0.96
0.30 0.34 0.38 0.44 0.51 0.57 0.59 0.60 0.62 0.59 0.60 0.66 0.67 0.71 0.77 0.88 0.89 0.80 0.78 0.79 0.74 0.72 0.67 0.55 0.53 0.63 0.84 1.09 0.92 0.66 0.64 0.62 0.64 0.76 1.12 1.63 2.15 2.23
0.38 0.42 0.45 0.51 0.57 0.62 0.65 0.64 0.63 0.59 0.59 0.68 0.73 0.74 0.78 0.83 0.80 0.84 0.84 0.86 0.86 0.78 0.71 0.65 0.57 0.58 0.64 0.73 0.80 0.71 0.63 0.58 0.54 0.60 0.80 0.98 1.24 1.53